Location: Sungai Bunut
(2.6333°N, 113.7333°E)
Time: 16:10:02
(UTC+00:00)

Altair - Pass Details

Date: 08 December 2023
Orbit: 1501 x 1682 km, 47.2° (Epoch: 24 February)

Event Time Altitude Azimuth Distance (km) Brightness Sun altitude
Rises 06:23:12 0° 348° (NNW) 4,632 9.8 50.1°
Reaches altitude 10° 06:27:52 10° 9° (N) 3,642 9.3 49.2°
Maximum altitude 06:33:07 16° 45° (NE) 3,161 8.9 48.2°
Drops below altitude 10° 06:38:22 10° 80° (E) 3,657 9.2 47.2°
Sets 06:42:59 0° 100° (E) 4,659 9.7 46.3°
